owner,sensor,date,latitude,longitude,vertical_datum,wind_speed,wind_to_direction,wind_speed_of_gust,qcFlag 
TABS,ioos:station:wmo:42046:1,2011-06-01T00:00:00Z,27.8903,-94.0367,4.0,7.254419343,103.6343618,8.46,'11111222,11111222,11111222' 
TABS,ioos:station:wmo:42046:1,2011-06-01T00:30:00Z,27.8903,-94.0367,4.0,7.220540146,104.5177728,8.36,'11111222,11111222,11111222' 
TABS,ioos:station:wmo:42046:1,2011-06-01T01:00:00Z,27.8903,-94.0367,4.0,7.030824987,109.4404103,8.52,'11111222,11111222,11111222' 
TABS,ioos:station:wmo:42046:1,2011-06-01T01:30:00Z,27.8903,-94.0367,4.0,7.615096848,113.9399356,8.69,'11111222,11111222,11111222' 
TABS,ioos:station:wmo:42046:1,2011-06-01T02:00:00Z,27.8903,-94.0367,4.0,7.055104535,113.2949297,7.99,'11111222,11111222,11111222' 
TABS,ioos:station:wmo:42046:1,2011-06-01T02:30:00Z,27.8903,-94.0367,4.0,6.653547926,111.5139444,7.76,'11111222,11111222,11111222' 
TABS,ioos:station:wmo:42046:1,2011-06-01T03:00:00Z,27.8903,-94.0367,4.0,6.35554089,119.7116872,7.81,'11111222,11111222,11111222' 
TABS,ioos:station:wmo:42046:1,2011-06-01T03:30:00Z,27.8903,-94.0367,4.0,5.205775639,119.9636567,6.13,'11111222,11111222,11111222' 
TABS,ioos:station:wmo:42046:1,2011-06-01T04:00:00Z,27.8903,-94.0367,4.0,5.64030141,110.877432,6.59,'11111222,11111222,11111222' 
TABS,ioos:station:wmo:42046:1,2011-06-01T04:30:00Z,27.8903,-94.0367,4.0,6.417257981,114.4886536,7.6,'11111222,11111222,11111222' 
TABS,ioos:station:wmo:42046:1,2011-06-01T05:00:00Z,27.8903,-94.0367,4.0,5.650999912,114.7967478,6.84,'11111222,11111222,11111222' 
TABS,ioos:station:wmo:42046:1,2011-06-01T05:30:00Z,27.8903,-94.0367,4.0,5.264684226,112.3272274,5.96,'11111222,11111222,11111222' 
TABS,ioos:station:wmo:42046:1,2011-06-01T06:00:00Z,27.8903,-94.0367,4.0,4.825940323,113.9628539,5.96,'11111222,11111222,11111222' 
TABS,ioos:station:wmo:42046:1,2011-06-01T06:30:00Z,27.8903,-94.0367,4.0,4.488485268,126.0277101,5.29,'11111222,11111222,11111222' 
TABS,ioos:station:wmo:42046:1,2011-06-01T07:00:00Z,27.8903,-94.0367,4.0,3.861631779,114.640788,4.88,'11111222,11111222,11111222' 
TABS,ioos:station:wmo:42046:1,2011-06-01T07:30:00Z,27.8903,-94.0367,4.0,3.514114398,119.1183022,4.3,'11111222,11111222,11111222' 
TABS,ioos:station:wmo:42046:1,2011-06-01T08:00:00Z,27.8903,-94.0367,4.0,3.413033841,125.4599562,4.48,'11111222,11111222,11111222' 
TABS,ioos:station:wmo:42046:1,2011-06-01T08:30:00Z,27.8903,-94.0367,4.0,3.048688243,122.5436072,4.08,'11111222,11111222,11111222' 
TABS,ioos:station:wmo:42046:1,2011-06-01T09:00:00Z,27.8903,-94.0367,4.0,2.500079999,113.0785884,3.28,'11111222,11111222,11111222' 
TABS,ioos:station:wmo:42046:1,2011-06-01T09:30:00Z,27.8903,-94.0367,4.0,1.939329781,95.6228084,2.61,'11111222,11111222,11111222' 
TABS,ioos:station:wmo:42046:1,2011-06-01T10:00:00Z,27.8903,-94.0367,4.0,1.006479011,62.16156298,1.57,'11111222,11111222,11111222' 
TABS,ioos:station:wmo:42046:1,2011-06-01T10:30:00Z,27.8903,-94.0367,4.0,0.715122367,69.53735541,1.32,'11111222,11111222,11111222' 
TABS,ioos:station:wmo:42046:1,2011-06-01T11:00:00Z,27.8903,-94.0367,4.0,1.311830782,23.8291833,2.49,'11111222,11111222,11111222' 
TABS,ioos:station:wmo:42046:1,2011-06-01T11:30:00Z,27.8903,-94.0367,4.0,1.778819833,38.60920394,2.37,'11111222,11111222,11111222' 
TABS,ioos:station:wmo:42046:1,2011-06-01T12:00:00Z,27.8903,-94.0367,4.0,2.412985702,42.81645012,2.99,'11111222,11111222,11111222' 
TABS,ioos:station:wmo:42046:1,2011-06-01T12:30:00Z,27.8903,-94.0367,4.0,3.212786952,47.27012867,3.9,'11111222,11111222,11111222' 
TABS,ioos:station:wmo:42046:1,2011-06-01T13:00:00Z,27.8903,-94.0367,4.0,3.662594709,37.90212507,4.41,'11111222,11111222,11111222' 
TABS,ioos:station:wmo:42046:1,2011-06-01T13:30:00Z,27.8903,-94.0367,4.0,4.213525839,29.42414031,5.33,'11111222,11111222,11111222' 
TABS,ioos:station:wmo:42046:1,2011-06-01T14:00:00Z,27.8903,-94.0367,4.0,4.265969995,43.19494599,5.51,'11111222,11111222,11111222' 
TABS,ioos:station:wmo:42046:1,2011-06-01T14:30:00Z,27.8903,-94.0367,4.0,4.816565166,46.2614989,5.68,'11111222,11111222,11111222' 
TABS,ioos:station:wmo:42046:1,2011-06-01T15:00:00Z,27.8903,-94.0367,4.0,5.108130774,43.09582094,5.95,'11111222,11111222,11111222' 
TABS,ioos:station:wmo:42046:1,2011-06-01T15:30:00Z,27.8903,-94.0367,4.0,4.968581286,54.00620272,6.19,'11111222,11111222,11111222' 
TABS,ioos:station:wmo:42046:1,2011-06-01T16:00:00Z,27.8903,-94.0367,4.0,4.770419269,48.99452863,6.34,'11111222,11111222,11111222' 
TABS,ioos:station:wmo:42046:1,2011-06-01T16:30:00Z,27.8903,-94.0367,4.0,4.729503145,55.33515426,5.72,'11111222,11111222,11111222' 
TABS,ioos:station:wmo:42046:1,2011-06-01T17:00:00Z,27.8903,-94.0367,4.0,4.348470996,52.28647039,5.42,'11111222,11111222,11111222' 
TABS,ioos:station:wmo:42046:1,2011-06-01T17:30:00Z,27.8903,-94.0367,4.0,4.444007201,53.23291002,5.57,'11111222,11111222,11111222' 
TABS,ioos:station:wmo:42046:1,2011-06-01T18:00:00Z,27.8903,-94.0367,4.0,4.307957753,46.59865491,5.32,'11111222,11111222,11111222' 
TABS,ioos:station:wmo:42046:1,2011-06-01T18:30:00Z,27.8903,-94.0367,4.0,4.554217825,48.29300266,5.27,'11111222,11111222,11111222' 
TABS,ioos:station:wmo:42046:1,2011-06-01T19:00:00Z,27.8903,-94.0367,4.0,4.801041554,51.93628102,5.8,'11111222,11111222,11111222' 
TABS,ioos:station:wmo:42046:1,2011-06-01T19:30:00Z,27.8903,-94.0367,4.0,4.491770252,61.83711756,5.31,'11111222,11111222,11111222' 
TABS,ioos:station:wmo:42046:1,2011-06-01T20:00:00Z,27.8903,-94.0367,4.0,3.556304261,55.19242216,4.35,'11111222,11111222,11111222' 
TABS,ioos:station:wmo:42046:1,2011-06-01T20:30:00Z,27.8903,-94.0367,4.0,2.393407613,48.04805212,3.11,'11111222,11111222,11111222' 
TABS,ioos:station:wmo:42046:1,2011-06-01T21:00:00Z,27.8903,-94.0367,4.0,2.80617177,41.24324055,3.44,'11111222,11111222,11111222' 
TABS,ioos:station:wmo:42046:1,2011-06-01T21:30:00Z,27.8903,-94.0367,4.0,2.632869157,47.46249523,3.31,'11111222,11111222,11111222' 
TABS,ioos:station:wmo:42046:1,2011-06-01T22:00:00Z,27.8903,-94.0367,4.0,2.558378393,62.5331595,3.1,'11111222,11111222,11111222' 
TABS,ioos:station:wmo:42046:1,2011-06-01T22:30:00Z,27.8903,-94.0367,4.0,2.353762945,69.87094083,3.23,'11111222,11111222,11111222' 
TABS,ioos:station:wmo:42046:1,2011-06-01T23:00:00Z,27.8903,-94.0367,4.0,1.833057555,47.43162857,2.48,'11111222,11111222,11111222' 
TABS,ioos:station:wmo:42046:1,2011-06-01T23:30:00Z,27.8903,-94.0367,4.0,1.981161276,42.95428061,2.56,'11111222,11111222,11111222' 
TABS,ioos:station:wmo:42046:1,2011-06-02T00:00:00Z,27.8903,-94.0367,4.0,2.028299781,49.39837938,2.84,'11111222,11111222,11111222' 
TABS,ioos:station:wmo:42046:1,2011-06-02T00:30:00Z,27.8903,-94.0367,4.0,1.724673882,49.9388883,2.26,'11111222,11111222,11111222' 
TABS,ioos:station:wmo:42046:1,2011-06-02T01:00:00Z,27.8903,-94.0367,4.0,1.218277472,41.67228785,1.65,'11111222,11111222,11111222' 
TABS,ioos:station:wmo:42046:1,2011-06-02T01:30:00Z,27.8903,-94.0367,4.0,1.362350909,40.23605376,1.98,'11111222,11111222,11111222' 
TABS,ioos:station:wmo:42046:1,2011-06-02T02:00:00Z,27.8903,-94.0367,4.0,1.030048543,359.4435386,1.56,'11111222,11144222,11111222' 
TABS,ioos:station:wmo:42046:1,2011-06-02T02:30:00Z,27.8903,-94.0367,4.0,1.248078523,322.4872655,1.84,'11111222,11111222,11111222' 
TABS,ioos:station:wmo:42046:1,2011-06-02T03:00:00Z,27.8903,-94.0367,4.0,0.435660418,328.1338864,1.29,'11111222,11111222,11111222' 
TABS,ioos:station:wmo:42046:1,2011-06-02T03:30:00Z,27.8903,-94.0367,4.0,1.22,90.00042092,1.8,'11111222,11111222,11111222' 
TABS,ioos:station:wmo:42046:1,2011-06-02T04:00:00Z,27.8903,-94.0367,4.0,1.814083791,101.1245039,2.2,'11111222,11111222,11111222' 
TABS,ioos:station:wmo:42046:1,2011-06-02T04:30:00Z,27.8903,-94.0367,4.0,1.236931688,112.8340217,1.61,'11111222,11111222,11111222' 
TABS,ioos:station:wmo:42046:1,2011-06-02T05:00:00Z,27.8903,-94.0367,4.0,1.540519393,88.51171503,2.12,'11111222,11111222,11111222' 
TABS,ioos:station:wmo:42046:1,2011-06-02T05:30:00Z,27.8903,-94.0367,4.0,1.173243368,124.2321963,1.77,'11111222,11111222,11111222' 
TABS,ioos:station:wmo:42046:1,2011-06-02T06:00:00Z,27.8903,-94.0367,4.0,0.468614981,129.8058989,0.84,'11111222,11111222,11111222' 
TABS,ioos:station:wmo:42046:1,2011-06-02T06:30:00Z,27.8903,-94.0367,4.0,0.190262976,266.9872195,0.56,'11111222,11111222,11111222' 
TABS,ioos:station:wmo:42046:1,2011-06-02T07:00:00Z,27.8903,-94.0367,4.0,0.718679344,301.9208016,1.01,'11111222,11111222,11111222' 
TABS,ioos:station:wmo:42046:1,2011-06-02T07:30:00Z,27.8903,-94.0367,4.0,1.410319113,293.8386844,2.14,'11111222,11111222,11111222' 
TABS,ioos:station:wmo:42046:1,2011-06-02T08:00:00Z,27.8903,-94.0367,4.0,1.881621641,288.9163704,2.6,'11111222,11111222,11111222' 
TABS,ioos:station:wmo:42046:1,2011-06-02T08:30:00Z,27.8903,-94.0367,4.0,2.14946505,280.9962469,2.82,'11111222,11111222,11111222' 
TABS,ioos:station:wmo:42046:1,2011-06-02T09:00:00Z,27.8903,-94.0367,4.0,2.928822289,289.5485037,3.53,'11111222,11111222,11111222' 
TABS,ioos:station:wmo:42046:1,2011-06-02T09:30:00Z,27.8903,-94.0367,4.0,3.242344831,291.3419531,4.07,'11111222,11111222,11111222' 
TABS,ioos:station:wmo:42046:1,2011-06-02T10:00:00Z,27.8903,-94.0367,4.0,3.72667412,285.5652235,4.42,'11111222,11111222,11111222' 
TABS,ioos:station:wmo:42046:1,2011-06-02T10:30:00Z,27.8903,-94.0367,4.0,3.467708177,301.0770285,4.57,'11111222,11111222,11111222' 
TABS,ioos:station:wmo:42046:1,2011-06-02T11:00:00Z,27.8903,-94.0367,4.0,3.790514477,315.8549902,4.88,'11111222,11111222,11111222' 
TABS,ioos:station:wmo:42046:1,2011-06-02T11:30:00Z,27.8903,-94.0367,4.0,3.351805484,315.4833909,4.26,'11111222,11111222,11111222' 
TABS,ioos:station:wmo:42046:1,2011-06-02T12:00:00Z,27.8903,-94.0367,4.0,2.528003165,323.0393205,3.39,'11111222,11111222,11111222' 
TABS,ioos:station:wmo:42046:1,2011-06-02T12:30:00Z,27.8903,-94.0367,4.0,2.113030998,321.3400717,2.93,'11111222,11111222,11111222' 
TABS,ioos:station:wmo:42046:1,2011-06-02T13:00:00Z,27.8903,-94.0367,4.0,1.838613608,346.7949877,2.47,'11111222,11111222,11111222' 
TABS,ioos:station:wmo:42046:1,2011-06-02T13:30:00Z,27.8903,-94.0367,4.0,1.297574661,346.1777672,2.06,'11111222,11111222,11111222' 
TABS,ioos:station:wmo:42046:1,2011-06-02T14:00:00Z,27.8903,-94.0367,4.0,1.715721423,4.680222215,2.19,'11111222,11111222,11111222' 
TABS,ioos:station:wmo:42046:1,2011-06-02T14:30:00Z,27.8903,-94.0367,4.0,3.735906851,326.3523365,4.88,'11111222,11111222,11111222' 
TABS,ioos:station:wmo:42046:1,2011-06-02T15:00:00Z,27.8903,-94.0367,4.0,5.41590251,331.068558,6.96,'11111222,11111222,11111222' 
TABS,ioos:station:wmo:42046:1,2011-06-02T15:30:00Z,27.8903,-94.0367,4.0,5.538086312,351.6941328,6.44,'11111222,11111222,11111222' 
TABS,ioos:station:wmo:42046:1,2011-06-02T16:00:00Z,27.8903,-94.0367,4.0,5.762794461,347.6759072,6.8,'11111222,11111222,11111222' 
TABS,ioos:station:wmo:42046:1,2011-06-02T16:30:00Z,27.8903,-94.0367,4.0,5.370772756,337.445627,6.36,'11111222,11111222,11111222' 
TABS,ioos:station:wmo:42046:1,2011-06-02T17:00:00Z,27.8903,-94.0367,4.0,6.32740073,339.8465298,7.24,'11111222,11111222,11111222' 
TABS,ioos:station:wmo:42046:1,2011-06-02T17:30:00Z,27.8903,-94.0367,4.0,5.98482247,343.8966283,6.81,'11111222,11111222,11111222' 
TABS,ioos:station:wmo:42046:1,2011-06-02T18:00:00Z,27.8903,-94.0367,4.0,5.834397998,347.2260229,6.79,'11111222,11111222,11111222' 
TABS,ioos:station:wmo:42046:1,2011-06-02T18:30:00Z,27.8903,-94.0367,4.0,5.838433009,348.9400812,6.71,'11111222,11111222,11111222' 
TABS,ioos:station:wmo:42046:1,2011-06-02T19:00:00Z,27.8903,-94.0367,4.0,5.833223808,354.885407,6.88,'11111222,11111222,11111222' 
TABS,ioos:station:wmo:42046:1,2011-06-02T19:30:00Z,27.8903,-94.0367,4.0,5.853554476,352.2434584,6.67,'11111222,11111222,11111222' 
TABS,ioos:station:wmo:42046:1,2011-06-02T20:00:00Z,27.8903,-94.0367,4.0,6.045461107,352.9688327,6.98,'11111222,11111222,11111222' 
TABS,ioos:station:wmo:42046:1,2011-06-02T20:30:00Z,27.8903,-94.0367,4.0,6.134313328,345.1706886,7.02,'11111222,11111222,11111222' 
TABS,ioos:station:wmo:42046:1,2011-06-02T21:00:00Z,27.8903,-94.0367,4.0,5.553602434,339.4437924,6.34,'11111222,11111222,11111222' 
TABS,ioos:station:wmo:42046:1,2011-06-02T21:30:00Z,27.8903,-94.0367,4.0,5.53188937,338.0253329,6.5,'11111222,11111222,11111222' 
TABS,ioos:station:wmo:42046:1,2011-06-02T22:00:00Z,27.8903,-94.0367,4.0,5.154813285,327.7588434,5.97,'11111222,11111222,11111222' 
TABS,ioos:station:wmo:42046:1,2011-06-02T22:30:00Z,27.8903,-94.0367,4.0,5.166372035,323.8175816,5.86,'11111222,11111222,11111222' 
TABS,ioos:station:wmo:42046:1,2011-06-02T23:00:00Z,27.8903,-94.0367,4.0,4.810093554,322.7726294,5.49,'11111222,11111222,11111222' 
TABS,ioos:station:wmo:42046:1,2011-06-02T23:30:00Z,27.8903,-94.0367,4.0,4.177379561,325.4348357,4.89,'11111222,11111222,11111222' 
TABS,ioos:station:wmo:42046:1,2011-06-03T00:00:00Z,27.8903,-94.0367,4.0,3.643212868,324.6084502,4.08,'11111222,11111222,11111222' 
TABS,ioos:station:wmo:42046:1,2011-06-03T00:30:00Z,27.8903,-94.0367,4.0,2.93421199,332.3868263,3.72,'11111222,11111222,11111222' 
TABS,ioos:station:wmo:42046:1,2011-06-03T01:00:00Z,27.8903,-94.0367,4.0,2.149720912,344.3473135,2.58,'11111222,11111222,11111222' 
TABS,ioos:station:wmo:42046:1,2011-06-03T01:30:00Z,27.8903,-94.0367,4.0,1.83613725,4.685678423,2.41,'11111222,11111222,11111222' 
TABS,ioos:station:wmo:42046:1,2011-06-03T02:00:00Z,27.8903,-94.0367,4.0,1.872111108,18.04756841,2.25,'11111222,11111222,11111222' 
TABS,ioos:station:wmo:42046:1,2011-06-03T02:30:00Z,27.8903,-94.0367,4.0,2.308462692,30.45267907,2.72,'11111222,11111222,11111222' 
TABS,ioos:station:wmo:42046:1,2011-06-03T03:00:00Z,27.8903,-94.0367,4.0,3.077174028,49.21661728,3.66,'11111222,11111222,11111222' 
TABS,ioos:station:wmo:42046:1,2011-06-03T03:30:00Z,27.8903,-94.0367,4.0,4.151529839,64.91604373,4.98,'11111222,11111222,11111222' 
TABS,ioos:station:wmo:42046:1,2011-06-03T04:00:00Z,27.8903,-94.0367,4.0,4.834894001,84.18287454,6.29,'11111222,11111222,11111222' 
TABS,ioos:station:wmo:42046:1,2011-06-03T04:30:00Z,27.8903,-94.0367,4.0,6.017216965,110.9353373,7.14,'11111222,11111222,11111222' 
TABS,ioos:station:wmo:42046:1,2011-06-03T05:00:00Z,27.8903,-94.0367,4.0,6.746851117,114.8941279,7.67,'11111222,11111222,11111222' 
TABS,ioos:station:wmo:42046:1,2011-06-03T05:30:00Z,27.8903,-94.0367,4.0,7.269057711,127.8476637,8.2,'11111222,11111222,11111222' 
TABS,ioos:station:wmo:42046:1,2011-06-03T06:00:00Z,27.8903,-94.0367,4.0,7.450167783,126.4857036,9.01,'11111222,11111222,11111222' 
TABS,ioos:station:wmo:42046:1,2011-06-03T06:30:00Z,27.8903,-94.0367,4.0,8.761284152,135.4164995,10.19,'11111222,11111222,11111222' 
TABS,ioos:station:wmo:42046:1,2011-06-03T07:00:00Z,27.8903,-94.0367,4.0,9.983291041,136.9892305,11.42,'11111222,11111222,11111222' 
TABS,ioos:station:wmo:42046:1,2011-06-03T07:30:00Z,27.8903,-94.0367,4.0,9.652320964,135.4620288,10.94,'11111222,11111222,11111222' 
TABS,ioos:station:wmo:42046:1,2011-06-03T08:00:00Z,27.8903,-94.0367,4.0,9.391235276,138.9291679,10.65,'11111222,11111222,11111222' 
TABS,ioos:station:wmo:42046:1,2011-06-03T08:30:00Z,27.8903,-94.0367,4.0,8.869374273,139.7563594,10.47,'11111222,11111222,11111222' 
TABS,ioos:station:wmo:42046:1,2011-06-03T09:00:00Z,27.8903,-94.0367,4.0,8.382153661,141.8315556,9.58,'11111222,11111222,11111222' 
TABS,ioos:station:wmo:42046:1,2011-06-03T09:30:00Z,27.8903,-94.0367,4.0,7.894529752,138.8007268,9.02,'11111222,11111222,11111222' 
TABS,ioos:station:wmo:42046:1,2011-06-03T10:00:00Z,27.8903,-94.0367,4.0,8.337655546,135.8264043,9.6,'11111222,11111222,11111222' 
TABS,ioos:station:wmo:42046:1,2011-06-03T10:30:00Z,27.8903,-94.0367,4.0,7.674405514,131.249459,8.65,'11111222,11111222,11111222' 
TABS,ioos:station:wmo:42046:1,2011-06-03T11:00:00Z,27.8903,-94.0367,4.0,7.098232174,128.3071668,8.24,'11111222,11111222,11111222' 
TABS,ioos:station:wmo:42046:1,2011-06-03T11:30:00Z,27.8903,-94.0367,4.0,6.437491748,128.7574384,7.38,'11111222,11111222,11111222' 
TABS,ioos:station:wmo:42046:1,2011-06-03T12:00:00Z,27.8903,-94.0367,4.0,5.891230771,117.8268414,6.82,'11111222,11111222,11111222' 
TABS,ioos:station:wmo:42046:1,2011-06-03T12:30:00Z,27.8903,-94.0367,4.0,5.714656595,122.4946063,6.99,'11111222,11111222,11111222' 
TABS,ioos:station:wmo:42046:1,2011-06-03T13:00:00Z,27.8903,-94.0367,4.0,5.77031195,127.4660061,6.67,'11111222,11111222,11111222' 
TABS,ioos:station:wmo:42046:1,2011-06-03T13:30:00Z,27.8903,-94.0367,4.0,5.666127425,127.2544897,6.57,'11111222,11111222,11111222' 
TABS,ioos:station:wmo:42046:1,2011-06-03T14:00:00Z,27.8903,-94.0367,4.0,5.723888538,118.7146679,7.43,'11111222,11111222,11111222' 
TABS,ioos:station:wmo:42046:1,2011-06-03T14:30:00Z,27.8903,-94.0367,4.0,6.181852473,117.76753,7.3,'11111222,11111222,11111222' 
TABS,ioos:station:wmo:42046:1,2011-06-03T15:00:00Z,27.8903,-94.0367,4.0,6.407721904,119.4457808,7.73,'11111222,11111222,11111222' 
TABS,ioos:station:wmo:42046:1,2011-06-03T15:30:00Z,27.8903,-94.0367,4.0,6.212930066,114.1313975,7.21,'11111222,11111222,11111222' 
TABS,ioos:station:wmo:42046:1,2011-06-03T16:00:00Z,27.8903,-94.0367,4.0,6.623752713,111.8017794,7.61,'11111222,11111222,11111222' 
TABS,ioos:station:wmo:42046:1,2011-06-03T16:30:00Z,27.8903,-94.0367,4.0,6.59674162,115.9827625,7.61,'11111222,11111222,11111222' 
TABS,ioos:station:wmo:42046:1,2011-06-03T17:00:00Z,27.8903,-94.0367,4.0,6.462855406,115.7724413,7.5,'11111222,11111222,11111222' 
TABS,ioos:station:wmo:42046:1,2011-06-03T17:30:00Z,27.8903,-94.0367,4.0,6.583859051,117.4994953,7.54,'11111222,11111222,11111222' 
TABS,ioos:station:wmo:42046:1,2011-06-03T18:00:00Z,27.8903,-94.0367,4.0,6.50298393,117.2746733,7.56,'11111222,11111222,11111222' 
TABS,ioos:station:wmo:42046:1,2011-06-03T18:30:00Z,27.8903,-94.0367,4.0,6.177159541,109.5793273,7.33,'11111222,11111222,11111222' 
TABS,ioos:station:wmo:42046:1,2011-06-03T19:00:00Z,27.8903,-94.0367,4.0,5.921570738,109.8429492,7.43,'11111222,11111222,11111222' 
TABS,ioos:station:wmo:42046:1,2011-06-03T19:30:00Z,27.8903,-94.0367,4.0,6.269968102,110.8344982,7.51,'11111222,11111222,11111222' 
TABS,ioos:station:wmo:42046:1,2011-06-03T20:00:00Z,27.8903,-94.0367,4.0,6.189806136,107.2936637,7.37,'11111222,11111222,11111222' 
TABS,ioos:station:wmo:42046:1,2011-06-03T20:30:00Z,27.8903,-94.0367,4.0,6.66364765,106.4772638,7.72,'11111222,11111222,11111222' 
TABS,ioos:station:wmo:42046:1,2011-06-03T21:00:00Z,27.8903,-94.0367,4.0,6.148316843,103.8332159,7.39,'11111222,11111222,11111222' 
TABS,ioos:station:wmo:42046:1,2011-06-03T21:30:00Z,27.8903,-94.0367,4.0,6.834398291,102.592851,7.9,'11111222,11111222,11111222' 
TABS,ioos:station:wmo:42046:1,2011-06-03T22:00:00Z,27.8903,-94.0367,4.0,6.740029674,102.5107585,8.14,'11111222,11111222,11111222' 
TABS,ioos:station:wmo:42046:1,2011-06-03T22:30:00Z,27.8903,-94.0367,4.0,6.530275645,100.0541203,8.2,'11111222,11111222,11111222' 
TABS,ioos:station:wmo:42046:1,2011-06-03T23:00:00Z,27.8903,-94.0367,4.0,6.879047899,105.7741677,7.7,'11111222,11111222,11111222' 
TABS,ioos:station:wmo:42046:1,2011-06-03T23:30:00Z,27.8903,-94.0367,4.0,7.125896435,104.4656583,8.39,'11111222,11111222,11111222' 
TABS,ioos:station:wmo:42046:1,2011-06-04T00:00:00Z,27.8903,-94.0367,4.0,6.89779675,103.7545878,7.94,'11111222,11111222,11111222' 
TABS,ioos:station:wmo:42046:1,2011-06-04T00:30:00Z,27.8903,-94.0367,4.0,6.71545233,107.0592004,7.91,'11111222,11111222,11111222' 
TABS,ioos:station:wmo:42046:1,2011-06-04T01:00:00Z,27.8903,-94.0367,4.0,7.088384865,105.2129682,8.33,'11111222,11111222,11111222' 
TABS,ioos:station:wmo:42046:1,2011-06-04T01:30:00Z,27.8903,-94.0367,4.0,7.140791273,110.2371209,8.65,'11111222,11111222,11111222' 
TABS,ioos:station:wmo:42046:1,2011-06-04T02:00:00Z,27.8903,-94.0367,4.0,7.001271313,106.0019848,8.24,'11111222,11111222,11111222' 
TABS,ioos:station:wmo:42046:1,2011-06-04T02:30:00Z,27.8903,-94.0367,4.0,7.318428793,103.0302156,8.13,'11111222,11111222,11111222' 
TABS,ioos:station:wmo:42046:1,2011-06-04T03:00:00Z,27.8903,-94.0367,4.0,7.394491193,111.4996204,8.93,'11111222,11111222,11111222' 
TABS,ioos:station:wmo:42046:1,2011-06-04T03:30:00Z,27.8903,-94.0367,4.0,7.436800387,110.6285561,8.89,'11111222,11111222,11111222' 
TABS,ioos:station:wmo:42046:1,2011-06-04T04:00:00Z,27.8903,-94.0367,4.0,7.173290737,113.0626142,8.12,'11111222,11111222,11111222' 
TABS,ioos:station:wmo:42046:1,2011-06-04T04:30:00Z,27.8903,-94.0367,4.0,7.518842996,111.6178227,8.51,'11111222,11111222,11111222' 
TABS,ioos:station:wmo:42046:1,2011-06-04T05:00:00Z,27.8903,-94.0367,4.0,7.467261881,119.1741986,8.51,'11111222,11111222,11111222' 
TABS,ioos:station:wmo:42046:1,2011-06-04T05:30:00Z,27.8903,-94.0367,4.0,7.015924743,111.225506,8.06,'11111222,11111222,11111222' 
TABS,ioos:station:wmo:42046:1,2011-06-04T06:00:00Z,27.8903,-94.0367,4.0,6.813992956,113.8945533,7.62,'11111222,11111222,11111222' 
TABS,ioos:station:wmo:42046:1,2011-06-04T06:30:00Z,27.8903,-94.0367,4.0,6.632231902,116.7972185,7.68,'11111222,11111222,11111222' 
TABS,ioos:station:wmo:42046:1,2011-06-04T07:00:00Z,27.8903,-94.0367,4.0,6.06110551,113.223782,6.91,'11111222,11111222,11111222' 
TABS,ioos:station:wmo:42046:1,2011-06-04T07:30:00Z,27.8903,-94.0367,4.0,6.024367187,119.7570292,7.18,'11111222,11111222,11111222' 
TABS,ioos:station:wmo:42046:1,2011-06-04T08:00:00Z,27.8903,-94.0367,4.0,5.814137941,118.9018117,6.84,'11111222,11111222,11111222' 
TABS,ioos:station:wmo:42046:1,2011-06-04T08:30:00Z,27.8903,-94.0367,4.0,5.570008977,106.157723,6.35,'11111222,11111222,11111222' 
TABS,ioos:station:wmo:42046:1,2011-06-04T09:00:00Z,27.8903,-94.0367,4.0,5.7607378,115.7202715,6.93,'11111222,11111222,11111222' 
TABS,ioos:station:wmo:42046:1,2011-06-04T09:30:00Z,27.8903,-94.0367,4.0,5.111966354,106.9465423,6.17,'11111222,11111222,11111222' 
TABS,ioos:station:wmo:42046:1,2011-06-04T10:00:00Z,27.8903,-94.0367,4.0,5.254759747,116.56541,6.51,'11111222,11111222,11111222' 
TABS,ioos:station:wmo:42046:1,2011-06-04T10:30:00Z,27.8903,-94.0367,4.0,5.216301372,112.1893197,6.4,'11111222,11111222,11111222' 
TABS,ioos:station:wmo:42046:1,2011-06-04T11:00:00Z,27.8903,-94.0367,4.0,5.025773572,110.743222,6.3,'11111222,11111222,11111222' 
TABS,ioos:station:wmo:42046:1,2011-06-04T11:30:00Z,27.8903,-94.0367,4.0,4.82037343,109.638208,5.56,'11111222,11111222,11111222' 
TABS,ioos:station:wmo:42046:1,2011-06-04T12:00:00Z,27.8903,-94.0367,4.0,5.049405906,105.743157,6.12,'11111222,11111222,11111222' 
TABS,ioos:station:wmo:42046:1,2011-06-04T12:30:00Z,27.8903,-94.0367,4.0,5.446503466,107.3042007,6.56,'11111222,11111222,11111222' 
TABS,ioos:station:wmo:42046:1,2011-06-04T13:00:00Z,27.8903,-94.0367,4.0,5.291540418,100.673263,6.77,'11111222,11111222,11111222' 
TABS,ioos:station:wmo:42046:1,2011-06-04T13:30:00Z,27.8903,-94.0367,4.0,5.463121818,97.99701736,6.57,'11111222,11111222,11111222' 
TABS,ioos:station:wmo:42046:1,2011-06-04T14:00:00Z,27.8903,-94.0367,4.0,5.10518364,92.58259257,6.09,'11111222,11111222,11111222' 
TABS,ioos:station:wmo:42046:1,2011-06-04T14:30:00Z,27.8903,-94.0367,4.0,4.773395018,92.16149535,5.79,'11111222,11111222,11111222' 
TABS,ioos:station:wmo:42046:1,2011-06-04T15:00:00Z,27.8903,-94.0367,4.0,4.571618969,79.15667999,5.51,'11111222,11111222,11111222' 
TABS,ioos:station:wmo:42046:1,2011-06-04T15:30:00Z,27.8903,-94.0367,4.0,4.462846625,69.12803082,5.78,'11111222,11111222,11111222' 
TABS,ioos:station:wmo:42046:1,2011-06-04T16:00:00Z,27.8903,-94.0367,4.0,4.676804465,61.24252543,5.63,'11111222,11111222,11111222' 
TABS,ioos:station:wmo:42046:1,2011-06-04T16:30:00Z,27.8903,-94.0367,4.0,4.651075145,63.71004774,5.49,'11111222,11111222,11111222' 
TABS,ioos:station:wmo:42046:1,2011-06-04T17:00:00Z,27.8903,-94.0367,4.0,4.873079109,67.43403282,5.87,'11111222,11111222,11111222' 
TABS,ioos:station:wmo:42046:1,2011-06-04T17:30:00Z,27.8903,-94.0367,4.0,4.866836755,77.41972367,5.91,'11111222,11111222,11111222' 
TABS,ioos:station:wmo:42046:1,2011-06-04T18:00:00Z,27.8903,-94.0367,4.0,5.309623339,72.00828773,6.57,'11111222,11111222,11111222' 
TABS,ioos:station:wmo:42046:1,2011-06-04T18:30:00Z,27.8903,-94.0367,4.0,5.739764804,66.15877125,6.71,'11111222,11111222,11111222' 